Location: Miami, Florida
(25.6830°N, 80.1700°W)
Time: 22:14:58
(UTC-04:00)

Vanguard 2 Rocket - All Passes

Search period start: 19 June 2018 00:00
Search period end: 29 June 2018 00:00
Orbit: 553 x 3328 km, 32.9° (Epoch: 19 June)

Date Brightness Start Highest point End Pass type
(mag) Time Alt. Az. Time Alt. Az. Time Alt. Az.
19 Jun - 08:11:32 10° S 08:26:08 30° SE 08:41:53 10° E daylight
19 Jun - 10:23:57 10° SW 10:43:44 68° SSE 11:01:15 10° ENE daylight
19 Jun - 12:42:06 10° WSW 13:02:37 77° NNW 13:16:40 10° ENE daylight
19 Jun - 15:03:48 10° W 15:21:01 63° N 15:30:54 10° E daylight
19 Jun - 17:24:29 10° WNW 17:37:11 90° SSE 17:44:02 10° ESE daylight
19 Jun - 19:43:55 10° W 19:49:57 23° SW 19:54:12 10° S daylight
20 Jun - 07:13:55 10° S 07:24:50 20° SE 07:37:03 10° E daylight
20 Jun - 09:23:25 10° SW 09:41:37 55° SE 09:59:55 10° ENE daylight
20 Jun - 11:39:34 10° WSW 12:00:20 86° NNW 12:16:27 10° ENE daylight
20 Jun - 14:00:18 10° W 14:19:25 65° N 14:31:14 10° ENE daylight
20 Jun - 16:21:47 10° WNW 16:36:51 76° NNE 16:45:01 10° ESE daylight
20 Jun - 18:41:27 10° WNW 18:50:57 42° SW 18:56:36 10° SSE daylight
21 Jun - 06:21:59 10° SE 06:23:49 10° SE 06:25:42 10° SE daylight
21 Jun - 08:23:45 10° SSW 08:39:49 42° SE 08:57:44 10° ENE daylight
21 Jun - 10:37:48 10° WSW 10:57:55 82° SSE 11:15:48 10° ENE daylight
21 Jun - 12:57:00 10° W 13:17:22 70° N 13:31:17 10° ENE daylight
21 Jun - 15:18:40 10° WNW 15:35:55 69° N 15:45:41 10° E daylight
21 Jun - 17:39:00 10° WNW 17:51:29 66° SSW 17:58:18 10° SE daylight
21 Jun - 20:00:59 10° WSW 20:03:30 12° SW 20:05:41 10° SSW daylight
22 Jun - 07:25:04 10° S 07:38:27 30° SE 07:54:21 10° E daylight
22 Jun - 09:36:51 10° SW 09:55:33 69° SSE 10:14:38 10° ENE daylight
22 Jun - 11:54:12 10° WSW 12:14:56 76° NNW 12:30:59 10° ENE daylight
22 Jun - 14:15:19 10° WNW 14:34:23 66° N 14:46:01 10° E daylight
22 Jun - 16:36:19 10° WNW 16:51:24 87° SSW 16:59:33 10° ESE daylight
22 Jun - 18:56:42 10° W 19:04:37 26° SW 19:09:51 10° S daylight
23 Jun - 06:27:51 10° S 06:37:33 19° SE 06:49:03 10° E daylight
23 Jun - 08:36:44 10° SW 08:53:31 56° SE 09:12:48 10° ENE daylight
23 Jun - 10:52:07 10° WSW 11:12:18 85° NNW 11:30:18 10° ENE daylight
23 Jun - 13:12:01 10° W 13:32:17 67° N 13:46:02 10° E daylight
23 Jun - 15:33:20 10° WNW 15:50:40 79° NNE 16:00:23 10° ESE daylight
23 Jun - 17:53:43 10° WNW 18:05:24 45° SW 18:12:09 10° SSE daylight
24 Jun - 07:37:26 10° SSW 07:51:59 42° SE 08:10:09 10° ENE daylight
24 Jun - 09:50:48 10° WSW 10:09:42 84° SSE 10:29:10 10° ENE daylight
24 Jun - 12:09:06 10° W 12:29:45 70° N 12:45:39 10° ENE daylight
24 Jun - 14:30:10 10° WNW 14:49:17 72° N 15:00:50 10° E daylight
24 Jun - 16:50:51 10° WNW 17:05:38 66° SSW 17:13:47 10° SE daylight
24 Jun - 19:13:16 10° W 19:18:03 15° SW 19:21:49 10° SSW daylight
25 Jun - 06:39:07 10° S 06:51:00 29° SE 07:06:21 10° E daylight
25 Jun - 08:50:18 10° SW 09:07:23 71° SSE 09:27:29 10° ENE daylight
25 Jun - 11:06:46 10° W 11:26:56 76° NNW 11:44:53 10° ENE daylight
25 Jun - 13:27:00 10° WNW 13:47:16 68° N 14:00:51 10° E daylight
25 Jun - 15:47:52 10° WNW 16:05:11 85° SSW 16:14:53 10° ESE daylight
25 Jun - 18:08:56 10° W 18:18:58 29° SW 18:25:24 10° S daylight
26 Jun - 05:42:18 10° SSE 05:50:31 18° SE 06:00:39 10° E visible
26 Jun - 07:50:34 10° SW 08:05:35 56° SE 08:25:10 10° ENE daylight
26 Jun - 10:05:11 10° WSW 10:24:06 84° NNW 10:43:41 10° ENE daylight
26 Jun - 12:24:05 10° W 12:44:43 68° N 13:00:26 10° E daylight
26 Jun - 14:44:50 10° WNW 15:04:01 82° NNE 15:15:31 10° ESE daylight
26 Jun - 17:05:33 10° WNW 17:19:28 47° SW 17:27:34 10° SSE daylight
27 Jun - 06:51:37 10° SSW 07:04:24 42° SE 07:22:06 10° ENE daylight
27 Jun - 09:04:20 10° WSW 09:21:31 85° SSE 09:42:00 10° ENE daylight
27 Jun - 11:21:39 10° W 11:41:48 71° N 11:59:35 10° ENE daylight
27 Jun - 13:41:49 10° WNW 14:02:10 74° NNE 14:15:39 10° E daylight
27 Jun - 16:02:24 10° WNW 16:19:20 66° SSW 16:29:03 10° SE daylight
27 Jun - 18:25:18 10° W 18:32:20 17° SW 18:37:35 10° SSW daylight
28 Jun - 05:53:36 10° S 06:03:51 28° SE 06:17:59 10° E visible
28 Jun - 08:04:14 10° SW 08:19:24 72° SSE 08:39:49 10° ENE daylight
28 Jun - 10:19:50 10° W 10:38:47 75° NNW 10:58:17 10° ENE daylight
28 Jun - 12:39:01 10° WNW 12:59:43 70° N 13:15:18 10° E daylight
28 Jun - 14:59:22 10° WNW 15:18:28 83° SSW 15:29:57 10° ESE daylight
28 Jun - 17:20:45 10° WNW 17:32:58 32° SW 17:40:47 10° SSE daylight
